EWG7QR EDDH-LEBL

Flight info

Callsign EWG7QR
Flight time N/A
Altitude 38000
Route HABFU1G HABFU Y348 DOMEG DCT DIXAT DCT IBESA/N0451F370 DCT LIMGO DCT SUTAL DCT GTQ DCT POGOL DCT LASAT DCT MOROK DCT GILIR DCT GEVEA/N0441F270 DCT INCUS DCT BALSI DCT RETNO DCT TUPOX DCT MTG DCT DIVKO DCT NILDU DCT BISBA
Aircraft A319/M-SDE3FGHIRWY/LB1

Departure

Time N/A
Airport Hamburg Helmut Schmidt Airport (EDDH)

Arrival

Time 2026-05-07 16:55
Airport Josep Tarradellas Barcelona-El Prat Airport (LEBL)
Time Latitude Longitude Altitude Speed Heading
2026-05-07 16:48 41.17885 1.73072 4092 ft 226 kts 68°
2026-05-07 16:48 41.18505 1.74997 3931 ft 226 kts 68°
2026-05-07 16:49 41.19112 1.76854 3842 ft 214 kts 68°
2026-05-07 16:49 41.19696 1.78609 3752 ft 201 kts 67°
2026-05-07 16:49 41.20248 1.80245 3667 ft 189 kts 67°
2026-05-07 16:49 41.20768 1.81828 3586 ft 185 kts 68°
2026-05-07 16:50 41.21288 1.83378 3482 ft 185 kts 68°
2026-05-07 16:50 41.21818 1.84922 3345 ft 183 kts 67°
2026-05-07 16:50 41.22348 1.86459 3265 ft 183 kts 66°
2026-05-07 16:50 41.22880 1.88001 3110 ft 184 kts 67°
2026-05-07 16:51 41.23410 1.89539 2873 ft 183 kts 67°
2026-05-07 16:51 41.23943 1.91082 2637 ft 183 kts 66°
2026-05-07 16:51 41.24469 1.92609 2402 ft 182 kts 66°
2026-05-07 16:51 41.24989 1.94115 2194 ft 173 kts 67°
2026-05-07 16:52 41.25474 1.95523 1926 ft 163 kts 68°
2026-05-07 16:52 41.25927 1.96837 1718 ft 150 kts 69°
2026-05-07 16:52 41.26336 1.98021 1534 ft 133 kts 68°
2026-05-07 16:52 41.26703 1.99090 1359 ft 124 kts 68°
2026-05-07 16:53 41.27057 2.00121 1187 ft 124 kts 67°
2026-05-07 16:53 41.27412 2.01156 1044 ft 121 kts 68°
2026-05-07 16:53 41.27753 2.02156 852 ft 120 kts 67°
2026-05-07 16:53 41.28108 2.03169 697 ft 121 kts 67°
2026-05-07 16:54 41.28455 2.04183 552 ft 120 kts 68°
2026-05-07 16:54 41.28808 2.05207 394 ft 124 kts 67°
2026-05-07 16:54 41.29151 2.06227 223 ft 120 kts 69°
2026-05-07 16:54 41.29495 2.07227 69 ft 119 kts 66°
2026-05-07 16:55 41.29813 2.08155 22 ft 96 kts 66°
2026-05-07 16:55 41.30018 2.08761 22 ft 47 kts 66°
2026-05-07 16:55 41.30135 2.09134 17 ft 44 kts 79°
2026-05-07 16:55 41.30108 2.09413 18 ft 12 kts 139°
2026-05-07 16:56 41.30042 2.09371 16 ft 13 kts 243°
2026-05-07 16:56 41.30000 2.09251 17 ft 16 kts 245°
2026-05-07 16:56 41.29899 2.08955 19 ft 19 kts 246°
2026-05-07 16:57 41.29904 2.08783 19 ft 20 kts 288°
2026-05-07 16:57 41.29916 2.08590 22 ft 22 kts 270°
2026-05-07 16:57 41.29922 2.08381 24 ft 25 kts 274°
2026-05-07 16:57 41.29937 2.08124 18 ft 30 kts 275°
2026-05-07 16:58 41.30041 2.07988 19 ft 23 kts 334°
2026-05-07 16:58 41.30160 2.07955 19 ft 15 kts 15°
2026-05-07 16:58 41.30212 2.07976 20 ft 3 kts 14°
2026-05-07 16:58 41.30223 2.07980 22 ft 0 kts 14°